AirNav   Bose ProFlight Aviation Headset
 
 706 users online  

3O4 Sayre Municipal Airport
Sayre, Oklahoma, USA

GOING TO SAYRE?


FAA INFORMATION EFFECTIVE 19 JULY 2018

Location

FAA Identifier: 3O4
Lat/Long: 35-10-03.7530N / 099-39-28.1020W
35-10.062550N / 099-39.468367W
35.1677092 / -99.6578061
(estimated)
Elevation: 1937.2 ft. / 590 m (estimated)
Variation: 08E (1985)
From city: 7 miles S of SAYRE, OK
Time zone: UTC -5 (UTC -6 during Standard Time)
Zip code: 73662

Airport Operations

Airport use: Open to the public
Activation date: 11/1946
Control tower: no
ARTCC: FORT WORTH CENTER
FSS: MC ALESTER FLIGHT SERVICE STATION
NOTAMs facility: MLC (NOTAM-D service available)
Attendance: UNATNDD
Wind indicator: lighted
Segmented circle: no
Lights: ACTVT MIRL RY 17/35 DUSK-DAWN - CTAF.
Beacon: white-green (lighted land airport)
Operates sunset to sunrise.

Airport Communications

CTAF: 122.9

Nearby radio navigation aids

VOR radial/distance  VOR name  Freq  Var
BFVr254/22.5BURNS FLAT VORTAC110.0005E
HBRr292/34.3HOBART VORTAC111.8010E
LTSr323/35.8ALTUS VORTAC109.8005E

Airport Services

Fuel available: 100LL
SELF SERVE FUEL AVBL 24 HRS WITH CREDIT CARD.
Parking: tiedowns
Airframe service: NONE
Powerplant service: NONE
Bottled oxygen: NONE
Bulk oxygen: NONE

Runway Information

Runway 17/35

Dimensions: 4276 x 130 ft. / 1303 x 40 m
Surface: concrete, in good condition
Weight bearing capacity: 
Single wheel: 30.0
Runway edge lights: medium intensity
RUNWAY 17  RUNWAY 35
Latitude: 35-10.414953N35-09.710162N
Longitude: 099-39.465457W099-39.471280W
Elevation: 1909.8 ft.1937.2 ft.
Gradient: 0.5% UP0.1%
Traffic pattern: leftleft
Runway heading: 172 magnetic, 180 true352 magnetic, 360 true
Markings: basic, in good conditionbasic, in good condition
Visual slope indicator: 2-light PAPI on left (3.00 degrees glide path)2-light PAPI on left (3.00 degrees glide path)
Touchdown point: yes, no lightsyes, no lights

Airport Ownership and Management from official FAA records

Ownership: Publicly-owned
Owner: CITY OF SAYRE
102 W MAIN
SAYRE, OK 73662
Phone 580-928-2260
Manager: GUY HYLTON
102 W. MAIN, 12714 N. 1860 RD.
SAYRE, OK 73662
Phone 580-928-2260
CITY MANAGER.

Airport Operational Statistics

Aircraft based on the field: 13
Single engine airplanes: 13
    
Aircraft operations: avg 40/week *
86% local general aviation
14% transient general aviation
* for 12-month period ending 05 October 2017

Instrument Procedures

There are no published instrument procedures at 3O4.

Some nearby airports with instrument procedures:

2K4 - Scott Field Airport (18 nm S)
KELK - Elk City Regional Business Airport (20 nm NE)
KCSM - Clinton-Sherman Airport (25 nm NE)
O35 - Hollis Municipal Airport (30 nm SW)
T59 - Wheeler Municipal Airport (32 nm NW)
 
Loc | Ops | Rwys | IFR | FBO | Links
Com | Nav | Svcs | Stats | Notes


 
Area around 3O4 (Sayre Municipal Airport)
 
Road maps at: MapQuest Bing Google
 
Aerial photo
WARNING: Photo may not be current or correct
Aerial photo of 3O4 (Sayre Municipal Airport)
Photo by Dean Ritter, Aerial Oklahoma

Do you have a better or more recent aerial photo of Sayre Municipal Airport that you would like to share? If so, please send us your photo.

 
Sectional chart

 
Airport distance calculator
Flying to Sayre Municipal Airport? Find the distance to fly.

From to 3O4

Sunrise and sunset
Times for 14-Aug-2018
 Local
(UTC-5)
 Zulu
(UTC)
Morning civil twilight06:3211:32
Sunrise06:5911:59
Sunset20:2801:28
Evening civil twilight20:5501:55

Current date and time
Zulu (UTC)  15-Aug-2018 04:01:24
Local (UTC-5)  14-Aug-2018 23:01:24
 
METAR
KELK 
20nm NE 
150355Z AUTO 09010G16KT 10SM -TSRA SCT015 BKN041 OVC055 22/21 A2995 RMK AO2 LTG DSNT ALQS P0076 T02210205
KCSM 
25nm NE 
150351Z 10021G26KT 1SM +TSRA BR VV016 21/21 A2996 RMK AO2 PK WND 10026/0350 WSHFT 0301 LTG DSNT E AND SE AND W RAB06 TSB02 SLP125 P0121 T02110206
KHBR 
32nm E 
150353Z AUTO 12017G23KT 10SM VCTS FEW025 SCT050 BKN075 25/19 A2989 RMK AO2 PK WND 08029/0325 WSHFT 0310 LTG DSNT NW-E SLP103 T02500194
KAXS 
32nm SE 
150355Z AUTO 14008KT 7SM BKN120 27/22 A2991 RMK AO2 LTG DSNT NE T02700215
KLTS 
36nm SE 
150356Z AUTO 13007KT 10SM BKN110 26/22 A2988 RMK AO2 SLP102 T02550220 $
TAF
KCSM 
25nm NE 
141736Z 1418/1518 18012KT P6SM SCT035 SCT250 TEMPO 1418/1421 BKN035 FM151000 24012KT P6SM BKN250
NOTAMs
Click for the latest NOTAMs
NOTAMs are issued by the DoD/FAA and will open in a separate window not controlled by AirNav.

 

 
 

FBO, Fuel Providers, and Aircraft Ground Support

  
 Business Name 
 
 Contact 
 
 Services / Description 
 
Fuel Prices
 
Comments
  
Sayre Municipal Airport 580-928-2260
no information available

If you are affiliated with Sayre Municipal Airport and would like to show here your services, contact info, web link, logo, and more, click here
100LL
SS $4.20 
 Updated 10-Aug-2018
 
   write
SS=Self service
Update Fuel Prices
 

Would you like to see your business listed on this page?

 If your business provides an interesting product or service to pilots, flight crews, aircraft, or users of the Sayre Municipal Airport, you should consider listing it here.  To start the listing process, click on the button below
 
Add a business
 

Other Pages about Sayre Municipal Airport

Update a link
 
Copyright © AirNav, LLC. All rights reserved. Privacy Policy  Contact